Weather History for KSKA - October, 2012

Change the Weather History Date:

Thursday, October 18, 2012

  Actual Average Record
Temperature  
Mean Temperature 48 °F -  
Max Temperature 61 °F 55 °F 75 °F (2003)
Min Temperature 34 °F 35 °F 30 °F (2013)
Degree Days  
Heating Degree Days 18    
Moisture  
Dew Point 33 °F    
Average Humidity 68    
Maximum Humidity 100    
Minimum Humidity 27    
Precipitation  
Precipitation 0.00 in - - ()
Sea Level Pressure  
Sea Level Pressure 30.16 in    
Wind  
Wind Speed 4 mph (ESE)    
Max Wind Speed 12 mph    
Max Gust Speed -    
Visibility 10 miles    
Events      
Averages and records for this station are not official NWS values.
T = Trace of Precipitation, MM = Missing Value Source: NWS Daily Summary

Daily Weather History Graph

Daily Weather History Graph

Search for Another Location

Airport or City:

Trip Planner

Search our weather history database for the weather conditions in past years. The results will help you decide how hot, cold, wet, or windy it might be!

Date:

Astronomy

Oct. 18, 2012 Rise Set
Actual Time 7:14 AM PDT 5:55 PM PDT
Civil Twilight 6:43 AM PDT 6:27 PM PDT
Nautical Twilight 6:07 AM PDT 7:02 PM PDT
Astronomical Twilight 5:31 AM PDT 7:38 PM PDT
Moon 11:16 AM PDT (10/18) 8:19 PM PDT (10/18)
Length of Visible Light 11h 43m
Length of Day
10h 41m
Waxing Crescent, 15% of the Moon is Illuminated
Oct 18
Waxing Crescent
Oct 21
First Quarter
Oct 29
Full
Nov 6
Last Quarter
Nov 13
New

Hourly Weather History & Observations

Time (PDT) Temp. Windchill Dew Point Humidity Pressure Visibility Wind Dir Wind Speed Gust Speed Precip Events Conditions
12:43 AM 39.2 °F - 35.6 °F 87% 30.29 in 10.0 mi Calm Calm - N/A   Clear
12:55 AM 39.9 °F 37.8 °F 34.2 °F 80% 30.29 in 10.0 mi SE 3.5 mph - 0.00 in   Clear
1:04 AM 39.2 °F 37.0 °F 35.6 °F 87% 30.29 in 10.0 mi ESE 3.5 mph - N/A   Scattered Clouds
1:13 AM 39.2 °F 35.0 °F 35.6 °F 87% 30.29 in 10.0 mi ESE 5.8 mph - N/A   Mostly Cloudy
1:55 AM 38.5 °F 36.1 °F 36.3 °F 92% 30.29 in 10.0 mi SE 3.5 mph - 0.00 in   Overcast
2:37 AM 37.4 °F - 37.4 °F 100% 30.29 in 10.0 mi Calm Calm - N/A   Clear
2:55 AM 38.1 °F 35.7 °F 37.2 °F 97% 30.29 in 10.0 mi ESE 3.5 mph - 0.00 in   Scattered Clouds
2:57 AM 37.4 °F 33.8 °F 37.4 °F 100% 30.28 in 10.0 mi ESE 4.6 mph - N/A   Mostly Cloudy
3:55 AM 37.0 °F 33.3 °F 37.0 °F 100% 30.27 in 10.0 mi ENE 4.6 mph - 0.00 in   Overcast
4:55 AM 35.2 °F 31.2 °F 35.2 °F 100% 30.28 in 10.0 mi ENE 4.6 mph - N/A   Clear
5:55 AM 34.9 °F 30.8 °F 34.9 °F 100% 30.29 in 10.0 mi ENE 4.6 mph - N/A   Clear
7:55 AM 36.1 °F 31.4 °F 36.1 °F 100% 30.28 in 10.0 mi NE 5.8 mph - N/A   Partly Cloudy
8:55 AM 39.2 °F - 39.2 °F 100% 30.29 in 10.0 mi Calm Calm - N/A   Clear
9:55 AM 44.8 °F 41.0 °F 36.5 °F 73% 30.27 in 10.0 mi East 6.9 mph - N/A   Clear
10:55 AM 49.3 °F - 33.6 °F 55% 30.25 in 10.0 mi East 8.1 mph - N/A   Partly Cloudy
11:55 AM 52.7 °F - 31.1 °F 44% 30.23 in 10.0 mi SE 5.8 mph - N/A   Clear
12:55 PM 55.6 °F - 31.3 °F 40% 30.19 in 10.0 mi SE 8.1 mph - N/A   Clear
1:55 PM 58.8 °F - 27.7 °F 31% 30.16 in 10.0 mi SE 6.9 mph - N/A   Clear
2:55 PM 60.3 °F - 28.0 °F 29% 30.11 in 10.0 mi SSE 10.4 mph - N/A   Partly Cloudy
3:55 PM 61.2 °F - 26.4 °F 27% 30.08 in 10.0 mi South 11.5 mph - N/A   Clear
4:55 PM 59.9 °F - 28.2 °F 30% 30.04 in 10.0 mi SE 9.2 mph - N/A   Clear
5:55 PM 55.0 °F - 28.6 °F 36% 30.02 in 10.0 mi ESE 3.5 mph - N/A   Clear
6:55 PM 52.7 °F - 27.9 °F 38% 29.99 in 5.0 mi Calm Calm - N/A   Haze
7:55 PM 50.2 °F - 29.8 °F 46% 29.96 in 10.0 mi ENE 3.5 mph - N/A   Clear
8:55 PM 48.0 °F - 31.6 °F 53% 29.93 in 10.0 mi ENE 4.6 mph - N/A   Clear
9:55 PM 48.6 °F - 32.4 °F 54% 29.90 in 10.0 mi NE 4.6 mph - N/A   Clear
10:55 PM 47.5 °F - 34.5 °F 61% 29.88 in 10.0 mi ENE 4.6 mph - N/A   Partly Cloudy
11:55 PM 47.1 °F - 36.3 °F 66% 29.86 in 10.0 mi East 3.5 mph - N/A   Partly Cloudy